Location: Neuvy Saint Sepulchre
(46.5953°N, 1.8122°E)
Time: 09:39:13
(UTC+02:00)

ISS - Pass Details

Date: 14 July 2021
Orbit: 419 x 421 km, 51.6° (Epoch: 04 August)

Event Time Altitude Azimuth Distance (km) Brightness Sun altitude
Rises 03:41:52 0° 295° (WNW) 2,371 0.1 -17.9°
Reaches altitude 10° 03:44:01 10° 301° (WNW) 1,505 -0.9 -17.7°
Maximum altitude 03:47:18 48° 17° (NNE) 558 -2.7 -17.5°
Drops below altitude 10° 03:50:35 10° 93° (E) 1,500 -0.7 -17.2°
Sets 03:52:43 0° 100° (E) 2,362 0.3 -17.0°
